{"data":{"norad_id":58747,"epoch":"2026-09-20T03:53:17.584512Z","epoch_age_seconds":181677,"freshness":"STALE","line1":"1 58747U 24005V   26263.16200908  .00000137  00000+0  14489-4 0  9997","line2":"2 58747  43.0029 201.6623 0001385 266.3102  93.7591 15.27576656150288","mean_motion":15.27576656,"eccentricity":0.0001385,"inclination_deg":43.0029,"raan_deg":201.6623,"arg_perigee_deg":266.3102,"mean_anomaly_deg":93.7591,"bstar":1.4489e-5,"rev_number":15028,"period_min":94.266955071877,"perigee_km":482.10883353579,"apogee_km":484.00938485804,"semimajor_km":6861.1961091969,"source":"CELESTRAK","updated_at":"2026-09-21T09:00:33.955267Z"}}